| time (UTC) | temp C | wind direction | speed KPH | gust KPH | rain 1hr cm | rain 24hr cm | rain mn cm | humidity % | barometer mb |
| 20260507141209 | 12 | 225 | 16.1 | 20.9 | 0.00 | 0.00 | 0.00 | 64 | 1014.7 |
| 20260507140209 | 12 | 220 | 8.0 | 20.9 | 0.00 | 0.00 | 0.00 | 65 | 1014.8 |
| 20260507133205 | 11 | 245 | 0.0 | 19.3 | 0.00 | 0.00 | 0.00 | 70 | 1014.9 |
| 20260507121158 | 8 | 188 | 0.0 | 16.1 | 0.00 | 0.00 | 0.00 | 82 | 1014.5 |
| 20260507120156 | 7 | 214 | 11.3 | 16.1 | 0.00 | 0.00 | 0.00 | 83 | 1014.6 |
| 20260507115156 | 7 | 212 | 0.0 | 9.7 | 0.00 | 0.00 | 0.00 | 85 | 1014.8 |
| 20260507113154 | 6 | 202 | 0.0 | 6.4 | 0.00 | 0.00 | 0.00 | 87 | 1015.0 |
| 20260507103147 | 6 | 202 | 0.0 | 6.4 | 0.00 | 0.00 | 0.00 | 87 | 1015.2 |
| 20260507102146 | 6 | 215 | 0.0 | 6.4 | 0.00 | 0.00 | 0.00 | 87 | 1015.3 |
| 20260507101146 | 6 | 202 | 0.0 | 6.4 | 0.00 | 0.00 | 0.00 | 86 | 1015.3 |
| 20260507094142 | 6 | 202 | 0.0 | 6.4 | 0.00 | 0.00 | 0.00 | 85 | 1015.6 |
| 20260507093142 | 6 | 233 | 0.0 | 0.0 | 0.00 | 0.00 | 0.00 | 84 | 1015.7 |
| 20260507092141 | 6 | 202 | 0.0 | 0.0 | 0.00 | 0.00 | 0.00 | 84 | 1015.6 |
| 20260507091140 | 7 | 205 | 0.0 | 0.0 | 0.00 | 0.00 | 0.00 | 83 | 1015.6 |
| 20260507081133 | 7 | 202 | 0.0 | 0.0 | 0.00 | 0.00 | 0.00 | 80 | 1016.0 |
| 20260507074130 | 6 | 208 | 0.0 | 0.0 | 0.00 | 0.00 | 0.00 | 78 | 1016.2 |
| 20260507072128 | 7 | 212 | 0.0 | 0.0 | 0.00 | 0.00 | 0.00 | 76 | 1016.5 |
| 20260507071127 | 7 | 216 | 0.0 | 0.0 | 0.00 | 0.00 | 0.00 | 75 | 1016.5 |
| 20260507070126 | 7 | 245 | 0.0 | 0.0 | 0.00 | 0.00 | 0.00 | 74 | 1016.7 |
| 20260507062122 | 8 | 225 | 0.0 | 0.0 | 0.00 | 0.00 | 0.00 | 70 | 1016.9 |
| 20260507055119 | 8 | 212 | 0.0 | 0.0 | 0.00 | 0.00 | 0.00 | 67 | 1017.1 |
| 20260507053117 | 8 | 202 | 0.0 | 0.0 | 0.00 | 0.00 | 0.00 | 64 | 1017.2 |
| 20260507052116 | 8 | 206 | 0.0 | 0.0 | 0.00 | 0.00 | 0.00 | 63 | 1017.1 |
| 20260507050114 | 9 | 212 | 0.0 | 0.0 | 0.00 | 0.00 | 0.00 | 60 | 1017.1 |
| 20260507042111 | 8 | 202 | 0.0 | 35.4 | 0.00 | 0.00 | 0.00 | 56 | 1017.1 |
| 20260507041109 | 8 | 202 | 0.0 | 35.4 | 0.00 | 0.00 | 0.00 | 59 | 1017.1 |
| 20260507040108 | 8 | 189 | 0.0 | 35.4 | 0.00 | 0.00 | 0.00 | 60 | 1017.1 |
| 20260507035108 | 8 | 180 | 0.0 | 35.4 | 0.00 | 0.00 | 0.00 | 59 | 1017.2 |
| 20260507034106 | 8 | 158 | 0.0 | 35.4 | 0.00 | 0.00 | 0.00 | 59 | 1017.2 |
| 20260507033105 | 8 | 158 | 0.0 | 35.4 | 0.00 | 0.00 | 0.00 | 58 | 1017.3 |
| 20260507031103 | 8 | 180 | 0.0 | 35.4 | 0.00 | 0.00 | 0.00 | 59 | 1017.2 |
| 20260507020056 | 9 | 202 | 0.0 | 35.4 | 0.00 | 0.00 | 0.00 | 52 | 1016.7 |
| 20260507014054 | 10 | 315 | 0.0 | 35.4 | 0.00 | 0.00 | 0.00 | 45 | 1016.6 |
| 20260507013053 | 11 | 202 | 0.0 | 35.4 | 0.00 | 0.00 | 0.00 | 42 | 1016.6 |
| 20260507012052 | 11 | 202 | 0.0 | 35.4 | 0.00 | 0.00 | 0.00 | 42 | 1016.5 |
| 20260507011051 | 12 | 202 | 0.0 | 35.4 | 0.00 | 0.00 | 0.00 | 40 | 1016.5 |